666  
ASUS42 KILM 212013  
RWRILM  
RWRILM  
REGIONAL HOURLY WEATHER ROUNDUP  
NATIONAL WEATHER SERVICE WILMINGTON NC  
300 PM EST SUN JAN 21 2018  
 
NOTE: "FAIR" INDICATES FEW OR NO CLOUDS BELOW 12,000 FEET WITH NO  
SIGNIFICANT WEATHER AND/OR S TO VISIBILITY
.  
   
..............WFO WILMINGTON COUNTY WARNING AREA............
 
 
   
.....COASTAL NC AND SC COUNTIES...
 
 
 
CITY SKY/WX TMP DP RH WIND PRES REMARKS
 
WILMINGTON FAIR 68 41 37 S6 30.20S  
N MYRTLE BEACH FAIR 59 35 40 S7 30.21F  
MYRTLE BEACH FAIR 58 40 51 SE8 30.23F  
   
.....INLAND NC AND SC COUNTIES....
 
 
 
CITY SKY/WX TMP DP RH WIND PRES REMARKS
 
LUMBERTON FAIR 69 42 37 S3 30.19S  
ELIZABETHTOWN NOT AVBL  
WHITEVILLE FAIR 68 41 37 S5 30.20S  
FLORENCE FAIR 68 40 35 CALM 30.20F  
DARLINGTON FAIR 68 42 38 CALM 30.20F  
KINGSTREE FAIR 68 36 30 SE3 30.20F  
HARTSVILLE FAIR 68 39 34 CALM 30.19S  
BENNETTSVILLE FAIR 70 41 35 S3 30.19F  
CONWAY FAIR 68 41 37 CALM 30.21S  
GEORGETOWN FAIR 61 37 41 SE7 30.23S  
MARION FAIR 66 39 37 S6 30.20F  
   
...................REST OF NORTH CAROLINA...................
 
 
   
........EASTERN NC......
 
 
 
CITY SKY/WX TMP DP RH WIND PRES REMARKS
 
CAPE HATTERAS NOT AVBL  
JACKSONVILLE FAIR 67 45 45 N5 30.19F  
MOREHEAD CITY FAIR 54 44 69 S7 30.21S  
KENANSVILLE FAIR 68 45 42 NW7 30.20S  
NEW BERN FAIR 65 44 46 E6 30.20S  
ELIZABETH CITY FAIR 64 51 62 SE3 30.20S  
   
........CENTRAL NC......
 
 
 
CITY SKY/WX TMP DP RH WIND PRES REMARKS
 
RALEIGH DURHAM FAIR 68 43 40 SW8 30.19F  
ROCKY MOUNT NOT AVBL  
ROANOKE RAPIDS NOT AVBL  
FAYETTEVILLE FAIR 70 43 37 W3 30.18F  
HOFFMAN NOT AVBL  
   
........WESTERN NC......
 
 
 
CITY SKY/WX TMP DP RH WIND PRES REMARKS
 
CHARLOTTE FAIR 68 41 37 SW10 30.19F  
GREENSBORO FAIR 65 43 44 SW8 30.18F  
HICKORY NOT AVBL  
BOONE NOT AVBL  
ASHEVILLE NOT AVBL  
   
....................REST OF SOUTH CAROLINA..................
 
 
   
........EASTERN SC......
 
 
 
CITY SKY/WX TMP DP RH WIND PRES REMARKS
 
CHARLESTON FAIR 68 42 38 SE10 30.20S  
BEAUFORT MCAS FAIR 66 46 48 SE6 30.20F  
HILTON HEAD SUNNY 59 39 47 SE3 30.21F  
   
........CENTRAL SC......
 
 
 
CITY SKY/WX TMP DP RH WIND PRES REMARKS
 
COLUMBIA FAIR 72 38 29 SE6 30.18F  
ORANGEBURG FAIR 68 37 32 SE3 30.19F  
SUMTER SHAW FAIR 71 39 32 CALM 30.17F  
   
........WESTERN SC......
 
 
 
CITY SKY/WX TMP DP RH WIND PRES REMARKS
 
GREENVILLE NOT AVBL  
ROCK HILL FAIR 68 42 38 SW9 30.19F  
ANDERSON FAIR 69 44 40 SW3 30.18F  
CLEMSON NOT AVBL  
GREENWOOD FAIR 68 43 40 S3 30.19F  
 
   
..................COASTAL AND OFFSHORE REPORTS...............
 
 
   
...............LOCAL PIERS AND NC RESERVE.............
 
 
 
STATION/POSITION TIME SKY/WX TEMP WIND PRES VSBY
 
AIR SEA DIR/SP/G  
(UTC) (F) (DEG/KT/KT) (MB) (MI)  
JOHNY MRCER PIER 1948 51 49 200/ 6/ 7 1022.9F  
NC RESRV MASNBRO 1845 230/ 2 1023.0  
OCEAN CREST PIER NOT AVBL  
SPRINGMAID PIER 1948 1026.6F  
 
   
...............COASTAL AND OFFSHORE BUOYS.............
 
 
 
STATION/POSITION TIME SKY/WX TEMP WIND PRES VSBY
 
AIR SEA DIR/SP/G  
(UTC) (F) (DEG/KT/KT) (MB) (MI)  
DIMNDSHOAL 41025 2000 55 73 290/ 6/ 10 1023.3  
CAPE LOOKOUT 2000 200/ 4/ 5 1023.1F  
ONSLOW BAY 41036 NOT AVBL  
ONSLOW BAY 41064 1908 55 57 260/ 4/ 6 1023.4F  
ONSLOW BAY 41159 2000 58 N/A  
WVE H/P(F/S)= 2/11  
 
MASNBO INL 41110 1959 47 N/A  
WVE H/P(F/S)= 1/11  
 
WILM HARBR 41108 2000 48 N/A  
WVE H/P(F/S)= 2/11  
 
27SE WRITB 41037 1908 56 59 260/ 6/ 8 1023.4F  
FRYING PAN 41013 2000 52 53 300/ 2/ 2 1023.6  
SUNST NRSH 41024 1908 49 210/ 4/ 4 1023.3F  
CAPRS NRSH 41029 1908 52 50 190/ 2/ 4 1023.4F  
EDISTO 41004 2000 62 70 260/ 6/ 8 1023.2  
 
   
.........OFFSHORE BUOYS BEYOND 100 NM OFFSHORE........
 
   
....IN A TRIANGLE---HAT TO BERMUDA TO BAHAMAS TO HAT..
 
 
 
 
STATION/POSITION TIME SKY/WX TEMP WIND PRES VSBY
 
AIR SEA DIR/SP/G  
(UTC) (F) (DEG/KT/KT) (MB) (MI)  
150E HAT 41001 NOT AVBL  
W BERMUDA 41048 2000 68 70 240/ 12/ 16 1024.5  
ATLANTIC S 41049 1950 72 76 90/ 10/ 12 1023.8R  
WVE H/P(F/S)= 5/10 SWL H/P/D(F/S/D)= 5/ 10/10  
 
E BAHAMAS 41046 2000 76 78 80/ 16/ 19 1020.0  
NE BAHAMAS 41047 2000 71 80/ 12/ 16 1023.5  
120E CANVRL41010 NOT AVBL  
 
END  
 
 
CLICK HERE TO GO TO PREVIOUS BULLETINS.

The Nexlab NC Page
The Nexlab SC Page Main Text Page